Simultaneous Nadir Overpasses (SNOs) Predictions

Prediction of SNOs between NOAA-15 and METOP-C Satellite Orbit:

Table of predicted SNOs for the next 14.0 days since TLE Epoch: 6/1/2024
Index Date (NOAA-15) Time (NOAA-15) Lat,Lon (NOAA-15) SZA (NOAA-15 ) Date (METOP-C) Time (METOP-C) Lat,Lon (METOP-C) SZA (METOP-C ) Distance(km) Time Diff (sec)
1 06/04/2024 02:28:21 -81.04, 1.50 119.35 06/04/2024 02:27:06 -81.05, 1.37 119.39 2.44 75
2 06/04/2024 03:18:48 81.05, 168.59 60.63 06/04/2024 03:17:47 81.05, 168.73 60.61 2.51 61
3 06/04/2024 04:09:21 -81.04, -23.79 119.36 06/04/2024 04:08:27 -81.06, -23.74 119.37 1.94 54
4 06/04/2024 04:59:48 81.06, 143.29 60.62 06/04/2024 04:59:09 81.04, 143.25 60.59 1.69 39
5 06/04/2024 05:50:21 -81.04, -49.09 119.37 06/04/2024 05:49:49 -81.05, -49.22 119.39 2.30 32
6 06/04/2024 06:40:48 81.06, 117.99 60.61 06/04/2024 06:40:30 81.05, 118.14 60.61 2.67 18
7 06/04/2024 07:31:21 -81.04, -74.39 119.38 06/04/2024 07:31:10 -81.06, -74.32 119.37 1.90 11
8 06/04/2024 08:21:48 81.06, 92.69 60.60 06/04/2024 08:21:52 81.05, 92.66 60.58 1.77 4
9 06/04/2024 09:12:21 -81.05, -99.68 119.40 06/04/2024 09:12:32 -81.05, -99.80 119.40 2.15 11
10 06/04/2024 10:02:48 81.06, 67.39 60.58 06/04/2024 10:03:13 81.05, 67.55 60.60 2.83 25
11 06/04/2024 10:53:21 -81.05,-124.98 119.41 06/04/2024 10:53:53 -81.06,-124.91 119.38 1.87 32
12 06/04/2024 11:43:47 81.05, 42.46 60.60 06/04/2024 11:44:34 81.06, 42.44 60.63 1.81 47
13 06/04/2024 12:34:21 -81.05,-150.28 119.42 06/04/2024 12:35:15 -81.06,-150.39 119.40 1.99 54
14 06/04/2024 13:24:48 81.07, 16.79 60.56 06/04/2024 13:25:56 81.06, 16.96 60.60 3.00 68



Historial Predications of SNOs between NOAA-15 and METOP-C
